Location: Cheyres
(46.8153°N, 6.7877°E)
Time: 03:25:45
(UTC+00:00)

SWARM A - Pass Details

Date: 11 May 2021
Orbit: 427 x 431 km, 87.4° (Epoch: 18 June)

Event Time Altitude Azimuth Distance (km) Brightness Sun altitude
Rises 20:45:52 0° 356° (N) 2,417 8.9 -15.4°
Reaches altitude 10° 20:47:55 10° 355° (N) 1,543 7.8 -15.6°
Maximum altitude 20:51:15 78° 270° (W) 447 4.3 -16.0°
Enters shadow 20:52:48 29° 187° (S) 815 5.2 -16.1°
